Regional Weather Roundup
Issued by NWS

Home | Current Version | Previous Version | Graphics & Text | Print | Product List | Glossary On
Versions: 1 2 3 4 5 6 7 8 9 10 11 12 13 14 15 16 17 18 19 20 21 22 23 24 25 26 27 28 29 30 31 32 33 34 35 36 37 38 39 40 41 42 43 44 45 46 47 48 49 50
962
ASUS43 KBIS 230002
RWRND

NORTH DAKOTA REGIONAL WEATHER ROUNDUP
NATIONAL WEATHER SERVICE BISMARCK ND
700 PM CDT TUE AUG 22 2017

NOTE: "FAIR" INDICATES FEW OR NO CLOUDS BELOW 12,000 FEET WITH NO
SIGNIFICANT WEATHER AND/OR OBSTRUCTIONS TO VISIBILITY.


NDZ001>003-009>011-017-230100-
NORTHWEST NORTH DAKOTA

CITY           SKY/WX    TMP DP  RH WIND       PRES   REMARKS
WILLISTON      SUNNY     80  40  23 SW5       30.11F
6HR MIN TEMP:  75; 6HR MAX TEMP:  81;

MINOT          SUNNY     75  40  28 NW7       30.10F
MINOT AFB      SUNNY     76  37  24 W6        30.09F
$$

NDZ018>021-031>035-040>046-230100-
SOUTHWEST NORTH DAKOTA

CITY           SKY/WX    TMP DP  RH WIND       PRES   REMARKS
BISMARCK       SUNNY     76  43  30 N9        30.12F
6HR MIN TEMP:  74; 6HR MAX TEMP:  78;

DICKINSON      SUNNY     77  42  28 NE8       30.12F
GARRISON         N/A     76  39  26 N6        30.11F
6HR MIN TEMP:  72; 6HR MAX TEMP:  77;

HETTINGER ARPT SUNNY     79  43  27 CALM      30.13F
$$

NDZ004>008-012>016-024-026-027-054-230100-
NORTHEAST NORTH DAKOTA

CITY           SKY/WX    TMP DP  RH WIND       PRES   REMARKS
GRAND FORKS    MOSUNNY   73  47  39 N10       30.05S
GRND FRKS AFB  SUNNY     71  45  39 N6        30.06S
DEVILS LAKE    SUNNY     72  42  34 N10       30.10F
$$

NDZ022-023-025-028>030-036>039-047>053-230100-
SOUTHEAST NORTH DAKOTA

CITY           SKY/WX    TMP DP  RH WIND       PRES   REMARKS
FARGO          SUNNY     74  43  32 NW14      30.06S
6HR MIN TEMP:  73; 6HR MAX TEMP:  78;

JAMESTOWN      SUNNY     70  49  47 N8        30.10F
$$





USA.gov is the U.S. government's official web portal to all federal, state and local government web resources and services.